This is the latest recevied weather packets stored in our database for station/object N4PWG. If no packets are shown the sender has not sent any weather packets the latest 10 day(s).
| Time | Temp. | Humidity | Pressure | Rain* | Wind** | Luminosity | Snow |
|---|---|---|---|---|---|---|---|
| 1777562453 | 16.11° C | 52% | 1035.4 hPa | 0 mm | - | 354 W/m² | - |
| 1777562150 | 15.56° C | 47% | 1035 hPa | 0 mm | - | 372 W/m² | - |
| 1777561847 | 16.11° C | 51% | 1035.1 hPa | 0 mm | - | 419 W/m² | - |
| 1777561544 | 15.56° C | 50% | 1035.2 hPa | 0 mm | - | 448 W/m² | - |
| 1777561239 | 15.56° C | 54% | 1035.3 hPa | 0 mm | - | 344 W/m² | - |
| 1777560938 | 15.56° C | 54% | 1035.4 hPa | 0 mm | - | 370 W/m² | - |
| 1777560635 | 15.56° C | 56% | 1035.6 hPa | 0 mm | - | 291 W/m² | - |
| 1777560333 | 15.56° C | 57% | 1035.6 hPa | 0 mm | - | 364 W/m² | - |
| 1777560031 | 15.56° C | 54% | 1035.4 hPa | 0 mm | - | 304 W/m² | - |
| 1777559726 | 15.56° C | 54% | 1035.7 hPa | 0 mm | - | 344 W/m² | - |
| 1777559424 | 15.56° C | 53% | 1035.4 hPa | 0 mm | - | 380 W/m² | - |
| 1777559121 | 15.56° C | 57% | 1035.5 hPa | 0 mm | - | 313 W/m² | - |
| 1777558821 | 15.56° C | 58% | 1035.4 hPa | 0 mm | - | 354 W/m² | - |
| 1777558517 | 15° C | 58% | 1035.3 hPa | 0 mm | - | 365 W/m² | - |
| 1777558213 | 15.56° C | 57% | 1035.2 hPa | 0 mm | - | 354 W/m² | - |
| 1777557909 | 15° C | 57% | 1035.4 hPa | 0 mm | - | 378 W/m² | - |
| 1777557606 | 15° C | 64% | 1035.3 hPa | 0 mm | - | 334 W/m² | - |
| 1777557302 | 14.44° C | 60% | 1035.5 hPa | 0 mm | - | 327 W/m² | - |
| 1777556999 | 13.89° C | 60% | 1035.6 hPa | 0 mm | - | 325 W/m² | - |
| 1777556694 | 13.89° C | 62% | 1035.7 hPa | 0 mm | - | 328 W/m² | - |
| 1777556391 | 13.89° C | 64% | 1035.6 hPa | 0 mm | - | 299 W/m² | - |
| 1777556086 | 13.33° C | 64% | 1035.5 hPa | 0 mm | - | 265 W/m² | - |
| 1777555785 | 13.33° C | 66% | 1035.5 hPa | 0 mm | - | 242 W/m² | - |
| 1777555482 | 13.89° C | 64% | 1035.6 hPa | 0 mm | - | 239 W/m² | - |
| 1777555178 | 13.33° C | 68% | 1035.4 hPa | 0 mm | - | 248 W/m² | - |
* Rain latest hour (hover to see other rain measurements)
** Current wind speed in m/s (hover to see current wind gust speed)